This is the latest recevied weather packets stored in our database for station/object K2CAT. If no packets are shown the sender has not sent any weather packets the latest 10 day(s).
| Time | Temp. | Humidity | Pressure | Rain* | Wind** | Luminosity | Snow |
|---|---|---|---|---|---|---|---|
| 1777732469 | 11.67° C | 68% | 1012.6 hPa | 0 mm | - | 385 W/m² | - |
| 1777732166 | 11.11° C | 68% | 1012.3 hPa | 0 mm | - | 318 W/m² | - |
| 1777731863 | 10.56° C | 70% | 1012.7 hPa | 0 mm | - | 266 W/m² | - |
| 1777731560 | 10.56° C | 72% | 1012.5 hPa | 0 mm | - | 283 W/m² | - |
| 1777731258 | 10° C | 73% | 1012.5 hPa | 0 mm | - | 184 W/m² | - |
| 1777730955 | 10° C | 76% | 1012.6 hPa | 0 mm | - | 138 W/m² | - |
| 1777730654 | 10° C | 77% | 1012.7 hPa | 0 mm | - | 123 W/m² | - |
| 1777730349 | 10° C | 77% | 1012.7 hPa | 0 mm | - | 126 W/m² | - |
| 1777730046 | 10° C | 77% | 1012.7 hPa | 0 mm | - | 96 W/m² | - |
| 1777729742 | 10° C | 81% | 1012.8 hPa | 0 mm | - | 117 W/m² | - |
| 1777729439 | 9.44° C | 79% | 1012.7 hPa | 0 mm | - | 102 W/m² | - |
| 1777729135 | 9.44° C | 78% | 1012.8 hPa | 0 mm | - | 106 W/m² | - |
| 1777728832 | 10° C | 81% | 1012.6 hPa | 0 mm | - | 114 W/m² | - |
| 1777728529 | 10° C | 83% | 1012.5 hPa | 0 mm | - | 158 W/m² | - |
| 1777728226 | 9.44° C | 80% | 1012.8 hPa | 0 mm | - | 155 W/m² | - |
| 1777727923 | 9.44° C | 82% | 1012.6 hPa | 0 mm | - | 151 W/m² | - |
| 1777727620 | 10° C | 84% | 1012.7 hPa | 0 mm | - | 162 W/m² | - |
| 1777727317 | 9.44° C | 85% | 1012.8 hPa | 0 mm | - | 124 W/m² | - |
| 1777727015 | 9.44° C | 86% | 1012.4 hPa | 0 mm | - | 141 W/m² | - |
| 1777726712 | 9.44° C | 88% | 1012.5 hPa | 0 mm | - | 149 W/m² | - |
| 1777726409 | 9.44° C | 87% | 1012.6 hPa | 0 mm | - | 160 W/m² | - |
| 1777726106 | 9.44° C | 91% | 1012.6 hPa | 0 mm | - | 114 W/m² | - |
| 1777725803 | 9.44° C | 93% | 1012.6 hPa | 0 mm | - | 110 W/m² | - |
| 1777725500 | 8.89° C | 95% | 1012.6 hPa | 0 mm | - | 109 W/m² | - |
| 1777725198 | 8.89° C | 97% | 1012.5 hPa | 0 mm | - | 105 W/m² | - |
* Rain latest hour (hover to see other rain measurements)
** Current wind speed in m/s (hover to see current wind gust speed)